Location: Browne Barr
(41.2080°N, 111.9480°W)
Time: 07:39:36
(UTC+00:00)

X-37B - Pass Details

Date: 03 August 2021
Orbit: 381 x 393 km, 45.0° (Epoch: 29 August)

Event Time Altitude Azimuth Distance (km) Brightness Sun altitude
Exits shadow 10:53:39 39° 245° (WSW) 582 1.0 -15.4°
Maximum altitude 10:54:40 87° 157° (SSE) 385 0.4 -15.3°
Drops below altitude 10° 10:57:49 10° 69° (ENE) 1,398 4.6 -14.8°
Sets 10:59:53 0° 69° (ENE) 2,253 5.9 -14.5°
